Flag for Spain Weather past 2 weeks in Córdoba, Spain

Now
45 °F

Fog.


Feels Like: 45 °F
Forecast: 46 / 67 °F
Wind: 2 mph from Northeast

Location: Moron De La Frontera Airport

Current Time: Dec 20, 2014 at 5:33:21 AM

Latest Report: Dec 20, 2014 at 5:00 AM


Visibility: 0 mi

Pressure: 30.42 "Hg

Humidity: 100%

Dew point: 45 °F

Location of CórdobaLocation

Historic Weather in Córdoba — Graph

°F

Córdoba temperature yesterday

Maximum temperature yesterday: 59 °F (at 4:00 PM)
Minimum temperature yesterday: 39 °F (at 6:00 AM)
Average temperature yesterday: 46 °F

Past Weeks' High & Low Weather Summary

 TemperatureHumidityPressure
High90 °F (Dec 12, 11:00 PM)100% (Dec 6, 5:00 AM)30.48 "Hg (Dec 6, 5:00 AM)
Low34 °F (Dec 12, 8:00 AM)24% (Dec 12, 11:00 PM)29.80 "Hg (Dec 13, 3:00 PM)
Average48 °F85%30.25 "Hg
* Reported Dec 5 4:00 AM — Dec 20 4:00 AM, Córdoba, Weather by CustomWeather, © 2014

Note: Actual official high and low records may vary slightly from our data, if they occured in-between our weather recording intervals... More about our weather records

Advertising

Córdoba weather history for previous 24 hours

 ConditionsComfort  
Time TempWeatherWind HumidityBarometerVisibility
4:00 AM
Dec 20
45 °FFog.No wind100%30.45 "Hg0 mi
3:00 AM45 °FFog.No wind100%30.45 "Hg0 mi
2:00 AM45 °FFog.No wind100%30.45 "Hg0 mi
1:00 AM45 °FFog.No wind100%30.45 "Hg0 mi
12:00 AM45 °FFog.No wind100%30.45 "Hg0 mi
11:00 PM
Dec 19
46 °FFog.No wind100%30.45 "Hg0 mi
10:00 PM46 °FFog.No wind100%30.45 "Hg0 mi
9:00 PM46 °FFog.2 mph93%30.45 "Hg0 mi
8:00 PM48 °FFog.1 mph100%30.42 "Hg0 mi
7:00 PM52 °FFog.2 mph94%30.42 "Hg0 mi
6:00 PM52 °FFog.3 mph94%30.39 "Hg0 mi
5:50 PM52 °FFog.5 mph94%30.39 "Hg0 mi
5:00 PM59 °FClear.No wind77%30.39 "Hg4 mi
4:00 PM59 °FClear.No wind72%30.39 "Hg4 mi
3:00 PM55 °FClear.No wind94%30.39 "Hg4 mi
2:00 PM52 °FFog.No wind94%30.42 "Hg2 mi
1:00 PM48 °FDense fog.1 mph94%30.45 "Hg1 mi
12:00 PM45 °FFog.1 mph100%30.48 "Hg1 mi
11:00 AM43 °FFog.No wind93%30.45 "Hg0 mi
10:00 AM39 °FFog.No wind100%30.45 "Hg0 mi
9:00 AM39 °FFog.No wind100%30.42 "Hg0 mi
8:00 AM39 °FFog.2 mph100%30.42 "Hg0 mi
7:00 AM39 °FFog.No wind100%30.39 "Hg0 mi
6:00 AM39 °FFog.No wind100%30.39 "Hg0 mi
5:00 AM41 °FFog.No wind100%30.39 "Hg1 mi
Weather by CustomWeather, © 2014

See weather overviewHow to use our weather pages